This is the latest recevied weather packets stored in our database for station/object SP6YY-15. If no packets are shown the sender has not sent any weather packets the latest 10 day(s).
| Time | Temp. | Humidity | Pressure | Rain* | Wind** | Luminosity | Snow |
|---|---|---|---|---|---|---|---|
| 1788191326 | 30° C | 20% | 1000.8 hPa | - | - | - | - |
| 1788188926 | 26.67° C | 35% | 1001 hPa | - | - | - | - |
| 1788187125 | 27.78° C | 22% | 1001 hPa | - | - | - | - |
| 1788186525 | 27.78° C | 21% | 1000.4 hPa | - | - | - | - |
| 1788174049 | 28.89° C | 32% | 1000.2 hPa | - | - | - | - |
| 1788172849 | 28.89° C | 32% | 1000.2 hPa | - | - | - | - |
| 1788172549 | 28.89° C | 32% | 1000.5 hPa | - | - | - | - |
| 1788172249 | 28.89° C | 32% | 1000.8 hPa | - | - | - | - |
| 1788171949 | 28.89° C | 32% | 1001.1 hPa | - | - | - | - |
| 1788171649 | 29.44° C | 32% | 1001.4 hPa | - | - | - | - |
| 1788171349 | 29.44° C | 32% | 1001.6 hPa | - | - | - | - |
| 1788171049 | 29.44° C | 32% | 1001.7 hPa | - | - | - | - |
| 1788170749 | 29.44° C | 32% | 1001.8 hPa | - | - | - | - |
| 1788170448 | 30° C | 32% | 1002.1 hPa | - | - | - | - |
| 1788170149 | 30° C | 32% | 1002.3 hPa | - | - | - | - |
| 1788169849 | 30° C | 32% | 1002.2 hPa | - | - | - | - |
| 1788169548 | 30.56° C | 32% | 1002.4 hPa | - | - | - | - |
| 1788169248 | 30.56° C | 32% | 1002.5 hPa | - | - | - | - |
| 1788168948 | 30.56° C | 32% | 1002.4 hPa | - | - | - | - |
| 1788168649 | 31.11° C | 32% | 1001.8 hPa | - | - | - | - |
| 1788168349 | 31.11° C | 32% | 1000.9 hPa | - | - | - | - |
| 1788168049 | 31.11° C | 32% | 1000.7 hPa | - | - | - | - |
| 1788167749 | 31.11° C | 32% | 1000.3 hPa | - | - | - | - |
| 1788167448 | 31.11° C | 32% | 1000.3 hPa | - | - | - | - |
| 1788167149 | 31.67° C | 32% | 1000.3 hPa | - | - | - | - |
* Rain since midnight (hover to see other rain measurements)
** Current wind speed in m/s (hover to see current wind gust speed)